Location: Kaarina
(60.4167°N, 22.4167°E)
Time: 11:51:27
(UTC+03:00)

SL-27 R/B - Pass Details

Date: 24 August 2019
Orbit: 420 x 473 km, 74.7° (Epoch: 24 September)

Event Time Altitude Azimuth Distance (km) Brightness Sun altitude
Exits shadow 23:44:28 28° 186° (S) 926 3.5 -15.4°
Maximum altitude 23:46:12 60° 116° (ESE) 547 2.5 -15.5°
Drops below altitude 10° 23:49:48 10° 36° (NE) 1,654 5.6 -15.7°
Sets 23:51:56 0° 33° (NNE) 2,538 6.7 -15.8°
